Madison, MN

12:38 PM CDT on October 21, 2017 (GMT -0500)
Madison-Lac Qui Parle County

Weather History for KDXX - April, 2013

Change the Weather History Date:

Tuesday, April 9, 2013

  Actual Average (KAQP) Record (KAQP)
Temperature  
Mean Temperature 26 °F -  
Max Temperature 30 °F 49 °F 80 °F (2014)
Min Temperature 21 °F 29 °F 8 °F (1997)
Degree Days  
Heating Degree Days 40    
Moisture  
Dew Point 20 °F    
Average Humidity 79    
Maximum Humidity 93    
Minimum Humidity 69    
Precipitation  
Precipitation 0.04 in - - ()
Sea Level Pressure  
Sea Level Pressure 30.15 in    
Wind  
Wind Speed 22 mph (North)    
Max Wind Speed 28 mph    
Max Gust Speed 37 mph    
Visibility 8 miles    
Events Snow    
Averages and records for this station are not official NWS values.
T = Trace of Precipitation, MM = Missing Value Source: NWS Daily Summary

Daily Weather History Graph

Daily Weather History Graph

Search for Another Location

Airport or City:

Trip Planner

Search our weather history database for the weather conditions in past years. The results will help you decide how hot, cold, wet, or windy it might be!

Date:

Astronomy

Apr. 09, 2013 Rise Set
Actual Time 6:50 AM CDT 8:02 PM CDT
Civil Twilight 6:20 AM CDT 8:33 PM CDT
Nautical Twilight 5:43 AM CDT 9:09 PM CDT
Astronomical Twilight 5:05 AM CDT 9:48 PM CDT
Moon 6:14 AM CDT (4/9) 7:40 PM CDT (4/9)
Length of Visible Light 14h 13m
Length of Day
13h 12m
Waning Crescent, 1% of the Moon is Illuminated
Apr 9
Waning Crescent
Apr 10
New
Apr 18
First Quarter
Apr 25
Full
May 2
Last Quarter

Hourly Weather History & Observations

Time (CDT) Temp. Windchill Dew Point Humidity Pressure Visibility Wind Dir Wind Speed Gust Speed Precip Events Conditions
12:14 AM 28.4 °F 14.7 °F 24.8 °F 86% 30.09 in 10.0 mi North 21.9 mph 28.8 mph N/A   Overcast
12:34 AM 26.6 °F 12.7 °F 24.8 °F 93% 30.08 in 10.0 mi North 20.7 mph 31.1 mph N/A   Overcast
12:53 AM 26.6 °F 13.1 °F 23.0 °F 86% 30.08 in 10.0 mi North 19.6 mph 28.8 mph N/A   Overcast
1:14 AM 26.6 °F 13.1 °F 23.0 °F 86% 30.09 in 10.0 mi North 19.6 mph 28.8 mph N/A   Overcast
1:34 AM 26.6 °F 12.0 °F 21.2 °F 80% 30.13 in 10.0 mi North 23.0 mph 26.5 mph N/A   Overcast
1:53 AM 26.6 °F 13.4 °F 21.2 °F 80% 30.13 in 10.0 mi North 18.4 mph 25.3 mph N/A   Overcast
2:14 AM 26.6 °F 12.0 °F 21.2 °F 80% 30.11 in 10.0 mi North 23.0 mph 28.8 mph N/A   Overcast
2:34 AM 26.6 °F 11.4 °F 21.2 °F 80% 30.10 in 10.0 mi North 25.3 mph 28.8 mph N/A   Overcast
2:53 AM 24.8 °F 9.6 °F 21.2 °F 86% 30.08 in 10.0 mi North 23.0 mph 36.8 mph N/A   Overcast
3:14 AM 24.8 °F 9.6 °F 21.2 °F 86% 30.08 in 10.0 mi North 23.0 mph 32.2 mph N/A   Overcast
3:34 AM 24.8 °F 9.6 °F 21.2 °F 86% 30.08 in 10.0 mi North 23.0 mph - N/A   Overcast
3:53 AM 24.8 °F 9.3 °F 19.4 °F 80% 30.10 in 10.0 mi North 24.2 mph 27.6 mph N/A   Overcast
4:14 AM 24.8 °F 10.0 °F 19.4 °F 80% 30.09 in 10.0 mi North 21.9 mph 28.8 mph N/A   Overcast
4:33 AM 24.8 °F 9.0 °F 19.4 °F 80% 30.11 in 10.0 mi North 25.3 mph 31.1 mph N/A   Overcast
4:53 AM 24.8 °F 8.7 °F 19.4 °F 80% 30.09 in 10.0 mi North 26.5 mph 34.5 mph N/A   Overcast
5:14 AM 24.8 °F 8.4 °F 19.4 °F 80% 30.10 in 10.0 mi North 27.6 mph - N/A Snow Light Snow
5:33 AM 24.8 °F 8.7 °F 19.4 °F 80% 30.12 in 7.0 mi North 26.5 mph 31.1 mph N/A Snow Light Snow
5:53 AM 24.8 °F 9.0 °F 19.4 °F 80% 30.11 in 4.0 mi North 25.3 mph 34.5 mph N/A Snow Light Snow
6:14 AM 23.0 °F 6.6 °F 19.4 °F 86% 30.10 in 5.0 mi North 25.3 mph 34.5 mph N/A Snow Light Snow
6:34 AM 24.8 °F 10.0 °F 17.6 °F 74% 30.12 in 7.0 mi North 21.9 mph 29.9 mph 0.01 in Snow Light Snow
6:53 AM 24.8 °F 9.6 °F 17.6 °F 74% 30.13 in 10.0 mi North 23.0 mph 29.9 mph 0.01 in   Overcast
7:14 AM 24.8 °F 11.1 °F 17.6 °F 74% 30.14 in 4.0 mi North 18.4 mph 23.0 mph N/A Snow Light Snow
7:34 AM 23.0 °F 8.3 °F 17.6 °F 80% 30.15 in 3.0 mi North 19.6 mph 25.3 mph N/A Snow Light Snow
7:53 AM 23.0 °F 8.0 °F 17.6 °F 80% 30.15 in 2.5 mi North 20.7 mph - N/A Snow Light Snow
8:14 AM 23.0 °F 8.0 °F 19.4 °F 86% 30.15 in 1.0 mi North 20.7 mph - N/A Snow Light Snow
8:33 AM 23.0 °F 6.9 °F 17.6 °F 80% 30.15 in 0.8 mi North 24.2 mph 29.9 mph N/A Snow Light Snow
8:54 AM 23.0 °F 8.0 °F 17.6 °F 80% 30.15 in 1.0 mi North 20.7 mph 28.8 mph N/A Snow Light Snow
9:13 AM 21.2 °F 6.0 °F 19.4 °F 93% 30.17 in 0.8 mi North 19.6 mph 29.9 mph N/A Snow Light Snow
9:34 AM 21.2 °F 5.2 °F 17.6 °F 86% 30.17 in 0.8 mi North 21.9 mph 28.8 mph N/A Snow Light Snow
9:54 AM 21.2 °F 5.6 °F 17.6 °F 86% 30.18 in 0.8 mi North 20.7 mph 27.6 mph 0.01 in Snow Light Snow
10:13 AM 21.2 °F 4.9 °F 15.8 °F 80% 30.19 in 0.8 mi North 23.0 mph 26.5 mph N/A Snow Light Snow
10:34 AM 21.2 °F 4.9 °F 15.8 °F 80% 30.19 in 0.8 mi North 23.0 mph 28.8 mph N/A Snow Light Snow
10:54 AM 21.2 °F 4.2 °F 15.8 °F 80% 30.18 in 0.8 mi North 25.3 mph 31.1 mph N/A Snow Light Snow
11:13 AM 21.2 °F 3.9 °F 15.8 °F 80% 30.17 in 1.0 mi North 26.5 mph 32.2 mph N/A Snow Light Snow
11:34 AM 21.2 °F 7.3 °F 15.8 °F 80% 30.22 in 4.0 mi NNW 16.1 mph 25.3 mph N/A Snow Light Snow
11:54 AM 21.2 °F 4.2 °F 15.8 °F 80% 30.20 in 10.0 mi North 25.3 mph - N/A Snow Light Snow
12:13 PM 21.2 °F 4.2 °F 15.8 °F 80% 30.21 in 1.2 mi North 25.3 mph 29.9 mph 0.01 in Snow Light Snow
12:34 PM 21.2 °F 5.6 °F 15.8 °F 80% 30.20 in 1.5 mi North 20.7 mph 28.8 mph 0.01 in Snow Light Snow
12:54 PM 21.2 °F 4.9 °F 15.8 °F 80% 30.19 in 4.0 mi North 23.0 mph 32.2 mph 0.02 in Snow Light Snow
1:13 PM 21.2 °F 4.9 °F 15.8 °F 80% 30.18 in 5.0 mi North 23.0 mph 29.9 mph N/A Snow Light Snow
1:34 PM 23.0 °F 6.9 °F 17.6 °F 80% 30.16 in 10.0 mi North 24.2 mph 31.1 mph N/A   Clear
1:54 PM 24.8 °F 8.7 °F 17.6 °F 74% 30.15 in 10.0 mi North 26.5 mph 29.9 mph N/A   Clear
2:13 PM 24.8 °F 10.0 °F 19.4 °F 80% 30.15 in 10.0 mi North 21.9 mph 32.2 mph N/A   Clear
2:34 PM 26.6 °F 11.4 °F 19.4 °F 74% 30.15 in 10.0 mi North 25.3 mph 31.1 mph N/A   Mostly Cloudy
2:53 PM 26.6 °F 12.7 °F 19.4 °F 74% 30.15 in 10.0 mi North 20.7 mph 27.6 mph N/A   Overcast
3:14 PM 26.6 °F 12.4 °F 19.4 °F 74% 30.17 in 10.0 mi North 21.9 mph 25.3 mph N/A   Overcast
3:33 PM 26.6 °F 13.4 °F 21.2 °F 80% 30.17 in 10.0 mi North 18.4 mph 24.2 mph N/A   Overcast
3:54 PM 28.4 °F 15.1 °F 21.2 °F 74% 30.16 in 10.0 mi North 20.7 mph 26.5 mph N/A   Overcast
4:13 PM 28.4 °F 15.1 °F 21.2 °F 74% 30.17 in 10.0 mi North 20.7 mph - N/A   Mostly Cloudy
4:34 PM 26.6 °F 13.1 °F 21.2 °F 80% 30.21 in 10.0 mi North 19.6 mph 24.2 mph N/A   Scattered Clouds
4:54 PM 26.6 °F 13.4 °F 21.2 °F 80% 30.19 in 10.0 mi North 18.4 mph 21.9 mph N/A   Scattered Clouds
5:14 PM 26.6 °F 11.7 °F 21.2 °F 80% 30.17 in 5.0 mi North 24.2 mph - N/A Snow Light Snow
5:33 PM 26.6 °F 12.4 °F 21.2 °F 80% 30.15 in 10.0 mi North 21.9 mph 27.6 mph N/A   Clear
5:54 PM 26.6 °F 13.1 °F 21.2 °F 80% 30.15 in 10.0 mi North 19.6 mph 27.6 mph N/A   Mostly Cloudy
6:13 PM 28.4 °F 14.7 °F 21.2 °F 74% 30.14 in 10.0 mi North 21.9 mph 26.5 mph N/A   Overcast
6:34 PM 28.4 °F 15.1 °F 21.2 °F 74% 30.14 in 10.0 mi North 20.7 mph 26.5 mph N/A   Overcast
6:54 PM 28.4 °F 15.8 °F 21.2 °F 74% 30.14 in 10.0 mi North 18.4 mph 25.3 mph N/A   Overcast
7:13 PM 28.4 °F 15.4 °F 21.2 °F 74% 30.13 in 10.0 mi North 19.6 mph 24.2 mph N/A   Overcast
7:34 PM 28.4 °F 16.2 °F 21.2 °F 74% 30.13 in 10.0 mi North 17.3 mph 24.2 mph N/A   Overcast
7:54 PM 28.4 °F 15.4 °F 21.2 °F 74% 30.14 in 10.0 mi North 19.6 mph 24.2 mph N/A   Overcast
8:13 PM 28.4 °F 15.8 °F 21.2 °F 74% 30.13 in 10.0 mi North 18.4 mph 24.2 mph N/A   Overcast
8:34 PM 28.4 °F 15.4 °F 21.2 °F 74% 30.13 in 10.0 mi North 19.6 mph 23.0 mph N/A   Overcast
8:54 PM 28.4 °F 15.4 °F 21.2 °F 74% 30.15 in 10.0 mi North 19.6 mph - N/A   Overcast
9:13 PM 30.2 °F 18.1 °F 21.2 °F 69% 30.16 in 10.0 mi North 18.4 mph - N/A   Overcast
9:54 PM 28.4 °F 16.2 °F 21.2 °F 74% 30.18 in 10.0 mi North 17.3 mph 23.0 mph N/A   Overcast
10:13 PM 28.4 °F 17.0 °F 23.0 °F 80% 30.20 in 10.0 mi North 15.0 mph - N/A Snow Light Snow
10:34 PM 28.4 °F 17.0 °F 23.0 °F 80% 30.20 in 10.0 mi North 15.0 mph - N/A   Overcast
10:54 PM 28.4 °F 16.6 °F 23.0 °F 80% 30.19 in 10.0 mi North 16.1 mph 21.9 mph N/A   Scattered Clouds
11:13 PM 28.4 °F 16.2 °F 23.0 °F 80% 30.19 in 10.0 mi North 17.3 mph - N/A   Mostly Cloudy
11:34 PM 28.4 °F 16.6 °F 21.2 °F 74% 30.21 in 10.0 mi NNW 16.1 mph - N/A   Overcast
11:54 PM 28.4 °F 17.0 °F 21.2 °F 74% 30.21 in 7.0 mi North 15.0 mph - N/A Snow Light Snow